Location: Im Fang
(46.6019°N, 7.2397°E)
Time: 23:28:04
(UTC+00:00)

Cosmos 676 Rocket - Pass Details

Date: 08 December 2019
Orbit: 754 x 785 km, 74.0° (Epoch: 26 January)

Event Time Altitude Azimuth Distance (km) Brightness Sun altitude
Exits shadow 05:18:59 23° 318° (NW) 1,598 5.2 -16.9°
Maximum altitude 05:21:59 48° 255° (WSW) 999 4.2 -16.4°
Drops below altitude 10° 05:27:01 10° 182° (S) 2,316 6.7 -15.6°
Sets 05:29:28 0° 177° (S) 3,243 7.5 -15.2°
